Weather History for Youngstown, OH

Change the Weather History Date:

Thursday, September 6, 2012

  Actual Average Record
Temperature  
Mean Temperature 74 °F 65 °F  
Max Temperature 85 °F 76 °F 93 °F (1954)
Min Temperature 63 °F 55 °F 38 °F (1962)
Degree Days  
Heating Degree Days 0 2  
Month to date heating degree days 0 12  
Since 1 July heating degree days 6 50  
Cooling Degree Days 9 3  
Month to date cooling degree days 54 18  
Year to date cooling degree days 748 504  
Growing Degree Days 24 (Base 50)    
Moisture  
Dew Point 65 °F    
Average Humidity 76    
Maximum Humidity 100    
Minimum Humidity 51    
Precipitation  
Precipitation T in 0.12 in 1.13 in (1983)
Month to date precipitation 1.84 0.74  
Year to date precipitation 30.28 26.96  
Snow  
Snow 0.00 in 0.00 in - ()
Month to date snowfall 0.0 0.0  
Since 1 July snowfall T 0.0  
Since 1 September snowfall 0.0 0.0  
Snow Depth 0.00 in    
Sea Level Pressure  
Sea Level Pressure 29.89 in    
Wind  
Wind Speed 4 mph (WSW)    
Max Wind Speed 15 mph    
Max Gust Speed 20 mph    
Visibility 9 miles    
Events Fog , Thunderstorm    
T = Trace of Precipitation, MM = Missing Value Source: NWS Daily Summary

Daily Weather History Graph

Daily Weather History Graph

Search for Another Location

Airport:

Trip Planner

Search our weather history database for the weather conditions in past years. The results will help you decide how hot, cold, wet, or windy it might be!

Date:

Astronomy

Sep. 06, 2012 Rise Set
Actual Time 6:54 AM EDT 7:46 PM EDT
Civil Twilight 6:26 AM EDT 8:14 PM EDT
Nautical Twilight 5:53 AM EDT 8:47 PM EDT
Astronomical Twilight 5:18 AM EDT 9:22 PM EDT
Moon 10:51 PM EDT (9/6) 12:56 PM EDT (9/6)
Length of Visible Light 13h 47m
Length of Day
12h 51m
Waning Gibbous, 67% of the Moon is Illuminated
Sep 6
Waning Gibbous
Sep 8
Last Quarter
Sep 15
New
Sep 22
First Quarter
Sep 29
Full

Hourly Weather History & Observations

Time (EDT) Temp. Heat Index Dew Point Humidity Pressure Visibility Wind Dir Wind Speed Gust Speed Precip Events Conditions
12:51 AM 70.0 °F - 64.0 °F 81% 29.86 in 10.0 mi South 4.6 mph - N/A   Overcast
1:51 AM 70.0 °F - 64.9 °F 84% 29.86 in 10.0 mi South 3.5 mph - N/A   Overcast
2:51 AM 69.1 °F - 64.9 °F 87% 29.86 in 10.0 mi South 4.6 mph - N/A   Mostly Cloudy
3:51 AM 68.0 °F - 64.9 °F 90% 29.86 in 10.0 mi Calm Calm - N/A   Mostly Cloudy
4:51 AM 66.9 °F - 64.0 °F 90% 29.86 in 10.0 mi Calm Calm - N/A   Mostly Cloudy
5:51 AM 66.0 °F - 64.0 °F 93% 29.86 in 10.0 mi SSW 3.5 mph - N/A   Scattered Clouds
6:51 AM 64.9 °F - 64.0 °F 97% 29.88 in 6.0 mi SW 3.5 mph - N/A Fog Partly Cloudy
7:51 AM 66.0 °F - 64.0 °F 93% 29.90 in 6.0 mi Calm Calm - N/A Fog Clear
8:51 AM 71.1 °F - 66.9 °F 87% 29.91 in 7.0 mi West 5.8 mph - N/A   Mostly Cloudy
9:12 AM 71.6 °F - 66.2 °F 83% 29.93 in 9.0 mi West 4.6 mph - N/A   Partly Cloudy
9:51 AM 73.9 °F - 68.0 °F 82% 29.92 in 8.0 mi NNW 4.6 mph - N/A   Clear
10:51 AM 78.1 °F - 68.0 °F 71% 29.91 in 10.0 mi WNW 3.5 mph - N/A   Scattered Clouds
11:51 AM 79.0 °F - 66.0 °F 64% 29.91 in 10.0 mi SSW 5.8 mph - N/A   Partly Cloudy
12:51 PM 81.0 °F 83.3 °F 66.9 °F 62% 29.91 in 10.0 mi SW 9.2 mph - N/A   Scattered Clouds
1:51 PM 82.0 °F 84.1 °F 66.0 °F 58% 29.90 in 10.0 mi SW 8.1 mph - N/A   Scattered Clouds
2:51 PM 82.9 °F 84.6 °F 64.9 °F 54% 29.89 in 10.0 mi Variable 4.6 mph - N/A   Scattered Clouds
3:51 PM 84.0 °F 85.8 °F 64.9 °F 53% 29.88 in 10.0 mi WSW 9.2 mph - N/A   Mostly Cloudy
4:51 PM 84.0 °F 85.8 °F 64.9 °F 53% 29.86 in 10.0 mi SW 8.1 mph - N/A   Scattered Clouds
5:51 PM 82.9 °F 84.4 °F 64.0 °F 53% 29.86 in 10.0 mi West 8.1 mph - N/A   Mostly Cloudy
6:51 PM 75.0 °F - 66.0 °F 73% 29.88 in 10.0 mi North 9.2 mph - 0.00 in   Mostly Cloudy
7:51 PM 73.0 °F - 66.0 °F 79% 29.89 in 10.0 mi NE 5.8 mph - N/A   Mostly Cloudy
8:27 PM 71.6 °F - 64.4 °F 78% 29.93 in 10.0 mi NW 5.8 mph - N/A Thunderstorm Thunderstorm
8:51 PM 73.0 °F - 64.9 °F 76% 29.91 in 10.0 mi SSW 8.1 mph - N/A   Scattered Clouds
9:51 PM 68.0 °F - 64.0 °F 87% 29.92 in 10.0 mi Calm Calm - N/A   Clear
10:51 PM 64.0 °F - 62.1 °F 93% 29.93 in 8.0 mi Calm Calm - N/A   Clear
11:51 PM 63.0 °F - 62.1 °F 97% 29.93 in 8.0 mi Calm Calm - N/A Fog Shallow Fog